Tracking 27122 objects as of 24-Mar-2023
HD Live streaming from Space Station
objects crossing your sky now

STARLINK-2452

Track STARLINK-2452 now!
10-day predictions
STARLINK-2452 is classified as:


NORAD ID: 48115
Int'l Code: 2021-027Z
Perigee: 553.6 km
Apogee: 555.1 km
Inclination: 53.1 °
Period: 95.6 minutes
Semi major axis: 6925 km
RCS: Unknown
Launch date: April 7, 2021
Source: United States (US)
Launch site: AIR FORCE EASTERN TEST RANGE (AFETR)
Your satellite tracking list
Your tracking list is empty




NASA's NSSDC Master Catalog

Two Line Element Set (TLE):
1 48115U 21027Z   23083.09141055  .00053987  00000-0  36149-2 0  9999
2 48115  53.0537 337.1004 0001106  68.8709 291.2398 15.06407529109135
Source of the keplerian elements: AFSPC